[[{"header":{"parameterUnit":"m.s-1","parameterCategory":1,"la1":30.2991,"la2":30.254,"lo1":-89.0895,"lo2":-89.0444,"dy":0.0017,"dx":0.0017,"nx":28,"ny":28,"refTime":"2024-10-12T09:00:00:Z","depth":0,"parameterNumber":2,"parameterNumberName":"U-component_of_WINDS"},"data":[0,0,0,0,0,0,0,0,0,0,0,0,0,0,0,0,0,0,0,0,0,0,0,0,0,0,0,0,0,0,0,0,0,0,0,0,0,0,0,0,0,0,0,0,0,0,0,0,0,0,0,0,0,0,0,0,0,0,1.7786,1.7787,0,1.7859,1.786,1.786,1.7858,1.7857,1.7856,1.7856,1.7933,1.7936,1.7939,0,0,0,0,0,0,0,0,0,0,0,0,0,1.7648,1.765,1.7786,1.7787,1.7788,1.7859,1.786,1.7861,1.7859,1.7857,1.7856,1.7855,1.7932,1.7935,1.7939,0,0,0,0,0,0,0,0,0,0,0,0,0,1.7713,1.7651,1.7786,1.7795,1.7797,1.7858,1.786,1.7861,1.7859,1.7857,1.7856,1.7855,1.7931,1.7935,1.794,1.7997,0,0,1.7953,1.7955,0,0,0,0,0,0,0,0,1.7709,1.7718,1.7793,1.7795,1.7796,1.7848,1.7839,1.7907,1.7859,1.7835,1.7856,1.7854,1.7906,1.7912,1.793,1.8001,1.8004,1.7954,1.7956,1.7958,1.796,0,0,0,0,0,0,0,1.7705,1.7715,1.7815,1.7794,1.7796,1.7797,1.7804,1.7852,1.7878,1.7837,1.7837,1.7846,1.7907,1.7925,1.7931,1.8005,1.7954,1.7958,1.796,1.7962,1.8128,1.813,0,0,0,0,0,0,1.7698,1.7711,1.7812,1.7817,1.7748,1.78,1.7809,1.7833,1.7878,1.7883,1.7847,1.7846,1.7918,1.7926,1.7934,1.8004,1.7958,1.7963,1.7965,1.8127,1.8129,1.813,0,0,0,0,0,0,1.7695,1.7707,1.7809,1.7764,1.7777,1.7804,1.7831,1.7835,1.7854,1.7885,1.789,1.7861,1.7917,1.7928,1.7981,1.8007,1.7965,1.7969,1.8124,1.8127,1.813,1.8146,0,0,0,0,0,0,1.7691,1.7706,1.7727,1.7764,1.7779,1.7855,1.7833,1.7838,1.7861,1.786,1.7899,1.7905,1.7917,1.7975,1.7986,1.8012,1.7972,1.8122,1.8126,1.8129,1.8143,1.8148,1.8153,0,0,0,0,0,1.7686,1.7729,1.7728,1.7741,1.7807,1.7856,1.7865,1.7878,1.7863,1.7885,1.7906,1.7903,1.8003,1.798,1.7993,1.8021,1.8121,1.8125,1.8128,1.8141,1.8147,1.8153,0,0,0,0,0,0,1.7695,1.7734,1.7734,1.779,1.782,1.7856,1.7884,1.7884,1.7919,1.7917,1.7932,1.7941,1.7994,1.8013,1.7988,1.808,1.806,1.8067,1.8065,1.8072,1.8077,1.8071,1.7976,0,0,0,0,0,1.7704,1.774,1.7772,1.7819,1.7834,1.7857,1.7879,1.7886,1.7917,1.793,1.7954,1.7986,1.8024,1.8049,1.8086,1.8146,1.8155,1.8172,1.8177,1.8181,1.8186,1.8219,1.8227,1.8143,1.8143,1.8143,0,0,1.7722,1.7748,1.777,1.7822,1.7846,1.7883,1.7867,1.7908,1.7936,1.7937,1.7988,1.8007,1.8044,1.8101,1.8127,1.8118,1.8211,1.8186,1.8189,1.8192,1.8224,1.8232,1.8239,1.8146,1.8145,1.8145,0,0,1.7774,1.7797,1.7839,1.7863,1.7899,1.7913,1.7924,1.796,1.7972,1.8024,1.8025,1.806,1.8126,1.8151,1.8173,1.8235,1.8234,1.8247,1.8274,1.8306,1.8312,1.8318,1.834,1.8348,1.8253,1.8253,1.8253,0,1.7792,1.7848,1.786,1.7901,1.7924,1.7926,1.7968,1.7991,1.8038,1.8054,1.8044,1.8126,1.8151,1.8213,1.8228,1.8246,1.8258,1.8242,1.831,1.8316,1.8322,1.8343,1.8351,1.8254,1.8254,1.8254,1.8254,0,1.7868,1.7907,1.7937,1.7981,1.8007,1.8049,1.8068,1.8094,1.8099,1.8115,1.8169,1.8198,1.8241,1.8257,1.8263,1.8321,1.8314,1.8307,1.8287,1.8331,1.8351,1.8359,1.8256,1.8255,1.8255,1.8255,0,0,1.7927,1.7978,1.7988,1.8008,1.8049,1.8079,1.8122,1.8163,1.8184,1.8217,1.8253,1.8308,1.8302,1.8326,1.8335,1.8363,1.8411,1.8353,1.8354,1.8362,1.8476,1.8481,1.849,1.8411,1.8412,1.8414,1.8473,0,1.7983,1.8056,1.8069,1.8134,1.817,1.8173,1.8209,1.8238,1.8255,1.8289,1.8308,1.8347,1.8335,1.835,1.8378,1.8399,1.8434,1.8395,1.8444,1.8446,1.8434,1.8501,1.8506,1.856,1.8481,1.8482,1.8483,0,1.8058,1.8091,1.8159,1.8194,1.821,1.8243,1.8282,1.8314,1.8347,1.8358,1.8385,1.8391,1.8435,1.8414,1.8476,1.8449,1.847,1.8484,1.8486,1.8491,1.8467,1.8506,1.8578,1.8586,1.8496,1.8495,1.8494,0,1.8093,1.8156,1.8204,1.8221,1.8264,1.8287,1.8306,1.8338,1.8362,1.8396,1.8412,1.8452,1.8473,1.8504,1.8521,1.8504,1.8581,1.8562,1.8591,1.8591,1.8606,1.8605,1.8682,1.8621,1.8621,1.8621,1.8621,0,1.8153,1.8195,1.8221,1.825,1.8297,1.8312,1.8358,1.8377,1.8405,1.8439,1.8445,1.8477,1.8497,1.8532,1.8546,1.8594,1.8604,1.8614,1.8617,1.8613,1.8612,1.8626,1.8623,1.8623,1.8623,1.8622,1.8622,0,1.82,1.8219,1.8272,1.8309,1.8319,1.8352,1.8383,1.8412,1.8429,1.8472,1.8483,1.851,1.8551,1.8571,1.8623,1.8632,1.8687,1.8688,1.8676,1.8677,1.8704,1.8701,1.8793,1.8805,1.8737,1.8738,1.8738,0,1.8237,1.8269,1.8309,1.8331,1.8351,1.8388,1.8412,1.8429,1.8454,1.8495,1.8519,1.8561,1.8595,1.8662,1.8686,1.8726,1.8727,1.8757,1.8733,1.8728,1.8727,1.8725,1.8728,1.8761,1.8761,1.8762,1.8762,0,1.83,1.8308,1.8343,1.8381,1.841,1.8441,1.8472,1.8491,1.8512,1.854,1.8583,1.8609,1.8662,1.8703,1.8745,1.8765,1.8768,1.877,1.8778,1.8774,1.8765,1.877,1.8686,1.8767,1.8767,1.8766,1.8766,1.8766,1.8343,1.8371,1.8403,1.8442,1.8467,1.8495,1.8525,1.8545,1.858,1.8624,1.8632,1.8677,1.871,1.8766,1.8788,1.8824,1.8817,1.883,1.8833,1.8836,1.8837,1.876,1.8832,1.8832,1.8831,1.8831,1.8831,0,1.8405,1.8426,1.8462,1.8504,1.8535,1.8534,1.8568,1.8594,1.8633,1.8664,1.8697,1.8746,1.8786,1.8814,1.8855,1.8878,1.8881,1.8889,1.8887,1.8891,1.8841,1.8829,1.8886,1.8886,1.8886,1.8886,1.8886,1.8886,1.8441,1.8489,1.8501,1.8562,1.8583,1.8626,1.8646,1.8672,1.8697,1.8751,1.8784,1.8802,1.8831,1.8874,1.8912,1.8919,1.8933,1.8941,1.8948,1.8901,1.8895,1.8889,1.8878,1.8945,1.8945,1.8996,1.8996,1.8996]},{"header":{"parameterUnit":"m.s-1","parameterCategory":1,"la1":30.2991,"la2":30.254,"lo1":-89.0895,"lo2":-89.0444,"dy":0.0017,"dx":0.0017,"nx":28,"ny":28,"refTime":"2024-10-12T09:00:00:Z","depth":0,"parameterNumber":3,"parameterNumberName":"V-component_of_WINDS"},"data":[0,0,0,0,0,0,0,0,0,0,0,0,0,0,0,0,0,0,0,0,0,0,0,0,0,0,0,0,0,0,0,0,0,0,0,0,0,0,0,0,0,0,0,0,0,0,0,0,0,0,0,0,0,0,0,0,0,0,3.2884,3.2884,0,3.2871,3.2871,3.2871,3.2874,3.2874,3.2874,3.2874,3.2858,3.2858,3.2857,0,0,0,0,0,0,0,0,0,0,0,0,0,3.2908,3.2908,3.2884,3.2884,3.2884,3.2871,3.2871,3.2871,3.2874,3.2874,3.2874,3.2874,3.2859,3.2858,3.2857,0,0,0,0,0,0,0,0,0,0,0,0,0,3.2896,3.2907,3.2884,3.2884,3.2884,3.2871,3.2871,3.2871,3.2873,3.2874,3.2874,3.2875,3.2859,3.2858,3.2857,3.2843,0,0,3.2854,3.2853,0,0,0,0,0,0,0,0,3.2897,3.2896,3.2884,3.2884,3.2884,3.2874,3.2873,3.2861,3.2873,3.2877,3.2874,3.2875,3.2863,3.2862,3.2858,3.2842,3.2842,3.2854,3.2853,3.2853,3.2852,0,0,0,0,0,0,0,3.2898,3.2896,3.2879,3.2884,3.2884,3.2883,3.2882,3.2871,3.2868,3.2877,3.2877,3.2876,3.2863,3.2859,3.2858,3.2841,3.2854,3.2853,3.2852,3.2852,3.281,3.281,0,0,0,0,0,0,3.2899,3.2897,3.2879,3.2879,3.2892,3.2882,3.2881,3.2877,3.2868,3.2867,3.2875,3.2876,3.2861,3.2859,3.2858,3.2839,3.2853,3.2852,3.2851,3.2811,3.281,3.2809,0,0,0,0,0,0,3.29,3.2898,3.288,3.2888,3.2885,3.2882,3.2877,3.2876,3.2873,3.2867,3.2866,3.2872,3.2861,3.2859,3.2846,3.2839,3.2851,3.285,3.2811,3.281,3.281,3.2803,0,0,0,0,0,0,3.2901,3.2898,3.2894,3.2888,3.2885,3.287,3.2877,3.2876,3.2871,3.2872,3.2864,3.2863,3.2861,3.2848,3.2845,3.2837,3.285,3.2812,3.2811,3.281,3.2804,3.2802,3.2801,0,0,0,0,0,3.2901,3.2892,3.2894,3.2891,3.288,3.287,3.2868,3.2867,3.2871,3.2866,3.2862,3.2863,3.284,3.2846,3.2844,3.2835,3.2812,3.2811,3.281,3.2805,3.2802,3.2801,0,0,0,0,0,0,3.2898,3.2892,3.2893,3.2882,3.2876,3.287,3.2864,3.2865,3.2857,3.2858,3.2856,3.2854,3.2841,3.2837,3.2844,3.282,3.2826,3.2825,3.2823,3.2821,3.282,3.282,3.2849,0,0,0,0,0,3.2896,3.2889,3.2884,3.2874,3.2871,3.2868,3.2864,3.2863,3.2857,3.2854,3.2849,3.2842,3.2833,3.2827,3.2818,3.2803,3.28,3.2796,3.2794,3.2793,3.2791,3.278,3.2778,3.2806,3.2806,3.2806,0,0,3.2891,3.2887,3.2883,3.2873,3.2869,3.286,3.2866,3.2858,3.2851,3.2853,3.284,3.2836,3.2828,3.2813,3.2806,3.2809,3.2783,3.2792,3.2791,3.279,3.2779,3.2776,3.2774,3.2805,3.2805,3.2805,0,0,3.2879,3.2876,3.2867,3.2862,3.2855,3.2852,3.285,3.2843,3.2841,3.2828,3.2829,3.282,3.2805,3.2798,3.2793,3.2775,3.2775,3.2772,3.2763,3.2753,3.275,3.2748,3.274,3.2738,3.2771,3.277,3.277,0,3.2874,3.2862,3.2862,3.2853,3.2847,3.2849,3.2839,3.2834,3.2824,3.2819,3.2823,3.2802,3.2797,3.278,3.2775,3.2771,3.2767,3.2773,3.2751,3.2749,3.2747,3.2739,3.2736,3.277,3.277,3.277,3.277,0,3.2856,3.2847,3.2841,3.2832,3.2826,3.2816,3.2812,3.2806,3.2805,3.2802,3.2787,3.2781,3.277,3.2766,3.2765,3.2747,3.2749,3.2752,3.2758,3.2744,3.2736,3.2734,3.2769,3.277,3.277,3.277,0,0,3.2841,3.2831,3.2828,3.2823,3.2815,3.2808,3.2797,3.2786,3.278,3.2773,3.2762,3.2748,3.275,3.2744,3.2742,3.2733,3.2717,3.2737,3.2736,3.2732,3.2694,3.2691,3.2688,3.2717,3.2716,3.2716,3.2694,0,3.2827,3.281,3.2808,3.2791,3.2782,3.2782,3.2772,3.2765,3.2761,3.2751,3.2746,3.2736,3.274,3.2736,3.2727,3.2721,3.2709,3.2722,3.2705,3.2704,3.2706,3.2684,3.2682,3.2661,3.2691,3.2691,3.269,0,3.2809,3.2801,3.2784,3.2774,3.277,3.2762,3.2751,3.2742,3.2733,3.273,3.2722,3.2721,3.2707,3.2714,3.2694,3.2703,3.2696,3.2691,3.269,3.2688,3.2696,3.268,3.2655,3.2652,3.2686,3.2686,3.2687,0,3.2798,3.2783,3.277,3.2766,3.2755,3.2749,3.2744,3.2735,3.2728,3.2718,3.2713,3.2701,3.2694,3.2684,3.2678,3.2684,3.2658,3.2665,3.2653,3.2653,3.2647,3.2648,3.262,3.2644,3.2645,3.2645,3.2645,0,3.2782,3.2771,3.2765,3.2757,3.2744,3.2741,3.2727,3.2722,3.2714,3.2703,3.2702,3.2692,3.2686,3.2674,3.2669,3.2652,3.2649,3.2645,3.2644,3.2645,3.2645,3.2639,3.264,3.2644,3.2644,3.2644,3.2644,0,3.2768,3.2764,3.275,3.2741,3.2738,3.2728,3.2719,3.271,3.2705,3.2692,3.2688,3.268,3.2666,3.2659,3.2642,3.2638,3.2618,3.2618,3.2621,3.2621,3.2609,3.2609,3.2576,3.257,3.26,3.2599,3.2599,0,3.2758,3.275,3.2739,3.2732,3.2727,3.2716,3.2709,3.2704,3.2696,3.2684,3.2675,3.2661,3.265,3.2626,3.2618,3.2603,3.2602,3.2591,3.26,3.26,3.26,3.26,3.2598,3.259,3.2589,3.2589,3.2589,0,3.274,3.2738,3.2728,3.2716,3.2708,3.2698,3.2689,3.2683,3.2677,3.2667,3.2653,3.2644,3.2625,3.261,3.2595,3.2587,3.2586,3.2586,3.2582,3.2583,3.2584,3.2581,3.2616,3.2587,3.2587,3.2587,3.2587,3.2587,3.2726,3.2718,3.2709,3.2697,3.2689,3.268,3.2671,3.2664,3.2653,3.2638,3.2635,3.2619,3.2607,3.2586,3.2578,3.2563,3.2566,3.2561,3.256,3.2558,3.2556,3.2587,3.2561,3.2561,3.2561,3.2561,3.2561,0,3.2707,3.27,3.269,3.2677,3.2666,3.2667,3.2656,3.2647,3.2633,3.2623,3.2611,3.2593,3.2577,3.2567,3.255,3.2541,3.2539,3.2536,3.2537,3.2534,3.2556,3.256,3.2538,3.2538,3.2538,3.2538,3.2538,3.2538,3.2695,3.268,3.2677,3.2657,3.265,3.2635,3.2628,3.2619,3.261,3.259,3.2578,3.2571,3.2559,3.2542,3.2526,3.2523,3.2517,3.2513,3.251,3.2531,3.2533,3.2535,3.2539,3.2512,3.2512,3.2489,3.2489,3.2489]}]]